TACSAT-3
1 35001U 09028A 11145.87656075 .00011712 00000-0 21755-3 0 06097
2 35001 040.4554 308.1966 0022620 039.4627 320.7834 15.48410461113623
CO-66
1 32791U 08021J 11146.21842101 .00000861 00000-0 11472-3 0 9886
2 32791 097.8499 210.3905 0014708 245.7534 114.2173 14.82098916166257
FALCON
1 30776U 07006E 11146.34527386 .00001029 00000-0 74767-4 0 939
2 30776 035.4322 119.7833 0002061 270.3915 089.6565 15.04597286231756
CO-58
1 28895U 05043F 11146.47864792 .00000098 00000-0 29770-4 0 8832
2 28895 097.9694 023.7030 0016523 289.7702 070.1702 14.60099771297071
RS-30
1 32953U 08025A 11146.57652159 .00000010 00000-0 00000 0 0 7640
2 32953 082.5011 176.1579 0020464 075.5326 284.8023 12.43013065136407
CAPE1
1 31130U 07012P 11146.59596276 .00000198 00000-0 56135-4 0 1848
2 31130 097.9004 171.8403 0101255 248.2177 110.8224 14.52388099217500
COMPASS
1 32787U 08021E 11146.74632124 .00000841 00000-0 11137-3 0 9966
2 32787 097.8476 210.9595 0014527 244.5609 115.4098 14.82402770166387
METEOR-M
1 35865U 09049A 11146.75846885 .00000176 00000-0 10000-3 0 4019
2 35865 098.7075 202.1624 0003255 086.1381 274.0114 14.21838770 87548
RS-38
1 35869U 09049E 11146.76116777 .00000177 00000-0 10000-3 0 3946
2 35869 098.7039 202.2014 0005394 089.8034 270.3712 14.22011889 87556
PHARMSAT
1 35002U 09028B 11146.80591608 .00009645 00000-0 18166-3 0 5589
2 35002 040.4698 300.2066 0024360 052.9179 307.3863 15.48118575113794
ISS
1 25544U 98067A 11146.82998442 .00016276 00000-0 10856-3 0 4236
2 25544 051.6479 270.2731 0003248 327.3115 170.5090 15.75536230717548
MAST
1 31126U 07012K 11146.83633957 .00000047 00000-0 21001-4 0 1687
2 31126 097.8940 175.2673 0093225 236.7242 122.5003 14.53745227217980
